Chatham, MA

7:10 AM EST on February 21, 2018 (GMT -0500)
Chatham Municipal

Weather History for KCQX - November, 2013

Change the Weather History Date:

Tuesday, November 12, 2013

  Actual Average Record
Temperature  
Mean Temperature 42 °F -  
Max Temperature 53 °F 48 °F 64 °F (2012)
Min Temperature 30 °F 36 °F 28 °F (1976)
Degree Days  
Heating Degree Days 24    
Moisture  
Dew Point 31 °F    
Average Humidity 81    
Maximum Humidity 92    
Minimum Humidity 53    
Precipitation  
Precipitation 0.27 in - - ()
Sea Level Pressure  
Sea Level Pressure 30.03 in    
Wind  
Wind Speed 8 mph (NW)    
Max Wind Speed 13 mph    
Max Gust Speed 23 mph    
Visibility 5 miles    
Events Fog , Rain , Snow    
Averages and records for this station are not official NWS values.
T = Trace of Precipitation, MM = Missing Value Source: NWS Daily Summary

Daily Weather History Graph

Daily Weather History Graph

Search for Another Location

Airport or City:

Trip Planner

Search our weather history database for the weather conditions in past years. The results will help you decide how hot, cold, wet, or windy it might be!

Date:

Astronomy

Nov. 12, 2013 Rise Set
Actual Time 6:25 AM EST 4:22 PM EST
Civil Twilight 5:56 AM EST 4:51 PM EST
Nautical Twilight 5:22 AM EST 5:25 PM EST
Astronomical Twilight 4:49 AM EST 5:57 PM EST
Moon 1:38 PM EST (11/12) 1:07 AM EST (11/12)
Length of Visible Light 10h 55m
Length of Day
9h 56m
Waxing Gibbous, 76% of the Moon is Illuminated
Nov 12
Waxing Gibbous
Nov 17
Full
Nov 25
Last Quarter
Dec 2
New
Dec 9
First Quarter

Hourly Weather History & Observations

Time (EST) Temp. Windchill Dew Point Humidity Pressure Visibility Wind Dir Wind Speed Gust Speed Precip Events Conditions
12:52 AM 53.1 °F - 39.0 °F 59% 29.94 in 10.0 mi WSW 10.4 mph 19.6 mph N/A   Overcast
1:52 AM 53.1 °F - 44.1 °F 71% 29.94 in 10.0 mi WSW 11.5 mph 21.9 mph N/A   Overcast
2:52 AM 53.1 °F - 45.0 °F 74% 29.91 in 10.0 mi WSW 10.4 mph - N/A   Overcast
3:52 AM 52.0 °F - 39.0 °F 61% 29.91 in 10.0 mi West 8.1 mph 17.3 mph N/A   Scattered Clouds
4:52 AM 52.0 °F - 35.1 °F 53% 29.92 in 10.0 mi Variable 6.9 mph - N/A   Overcast
5:52 AM 51.1 °F - 35.1 °F 54% 29.94 in 10.0 mi Variable 3.5 mph - N/A   Overcast
6:52 AM 48.9 °F - 36.0 °F 61% 29.95 in 10.0 mi NW 9.2 mph - 0.00 in Rain Light Rain
7:52 AM 45.0 °F 40.6 °F 39.9 °F 82% 29.98 in 5.0 mi WNW 8.1 mph 18.4 mph 0.02 in Rain Light Rain
8:52 AM 41.0 °F 34.3 °F 37.9 °F 89% 30.01 in 3.0 mi NNW 11.5 mph 18.4 mph 0.05 in Rain Rain
8:55 AM 39.9 °F 32.9 °F 37.0 °F 89% 30.00 in 2.5 mi NNW 11.5 mph 23.0 mph 0.01 in Rain Rain
9:07 AM 37.9 °F 31.5 °F 35.1 °F 89% 30.00 in 4.0 mi North 9.2 mph 21.9 mph 0.02 in Rain Rain
9:52 AM 37.0 °F 31.6 °F 34.0 °F 89% 30.03 in 6.0 mi Variable 6.9 mph - 0.05 in Rain Light Rain
10:21 AM 36.0 °F 28.5 °F 33.1 °F 89% 30.02 in 6.0 mi NNW 10.4 mph 18.4 mph 0.00 in Snow Light Snow
10:29 AM 35.1 °F 26.9 °F 32.0 °F 89% 30.02 in 2.5 mi NNW 11.5 mph 21.9 mph 0.01 in Snow Light Snow
10:40 AM 35.1 °F 27.4 °F 32.0 °F 89% 30.02 in 2.5 mi NNW 10.4 mph 17.3 mph 0.02 in Snow Light Snow
10:47 AM 35.6 °F 28.0 °F 32.0 °F 87% 30.02 in 2.5 mi NNW 10.4 mph 21.9 mph 0.02 in Snow Light Snow
10:52 AM 34.0 °F 26.6 °F 32.0 °F 92% 30.03 in 2.0 mi NNW 9.2 mph 20.7 mph 0.02 in Snow Light Snow
11:04 AM 34.0 °F 26.0 °F 32.0 °F 92% 30.01 in 1.2 mi NNW 10.4 mph 19.6 mph 0.01 in Snow Light Snow
11:34 AM 33.1 °F 26.9 °F 30.9 °F 92% 30.02 in 0.5 mi Variable 6.9 mph 23.0 mph 0.03 in Fog , Snow Snow
11:52 AM 33.1 °F 27.7 °F 30.9 °F 92% 30.03 in 0.5 mi Variable 5.8 mph - 0.05 in Fog , Snow Snow
12:20 PM 33.1 °F 27.7 °F 30.0 °F 89% 30.02 in 1.0 mi Variable 5.8 mph 20.7 mph 0.02 in Snow Light Snow
12:27 PM 33.1 °F 25.5 °F 30.0 °F 89% 30.02 in 1.5 mi NNW 9.2 mph - 0.02 in Snow Light Snow
12:52 PM 32.0 °F 22.5 °F 30.0 °F 92% 30.03 in 0.8 mi NNW 12.7 mph 23.0 mph 0.02 in Snow Light Snow
1:08 PM 32.0 °F 25.6 °F 30.0 °F 92% 30.03 in 0.5 mi Variable 6.9 mph 17.3 mph 0.01 in Fog , Snow Snow
1:13 PM 32.0 °F 24.8 °F 30.0 °F 92% 30.03 in 0.5 mi North 8.1 mph 17.3 mph 0.01 in Fog , Snow Snow
1:22 PM 32.0 °F 24.8 °F 30.0 °F 92% 30.03 in 0.8 mi NNW 8.1 mph 19.6 mph 0.02 in Snow Light Snow
1:41 PM 32.0 °F 25.6 °F 28.9 °F 88% 30.04 in 1.0 mi Variable 6.9 mph 20.7 mph 0.02 in Snow Light Snow
1:52 PM 32.0 °F 25.6 °F 28.9 °F 88% 30.05 in 1.0 mi Variable 6.9 mph 18.4 mph 0.03 in Snow Light Snow
2:14 PM 32.0 °F 26.4 °F 28.9 °F 88% 30.05 in 0.5 mi Variable 5.8 mph - 0.00 in Fog , Snow Snow
2:34 PM 32.0 °F 24.8 °F 30.0 °F 92% 30.06 in 0.5 mi North 8.1 mph - 0.01 in Fog , Snow Snow
2:52 PM 30.9 °F 26.2 °F 28.9 °F 92% 30.06 in 0.5 mi Variable 4.6 mph - 0.02 in Fog , Snow Snow
3:07 PM 30.9 °F 27.5 °F 28.0 °F 89% 30.06 in 1.0 mi Variable 3.5 mph - 0.01 in Snow Light Snow
3:14 PM 30.9 °F - 28.9 °F 92% 30.06 in 3.0 mi Calm Calm - 0.01 in Snow Light Snow
3:21 PM 30.9 °F - 28.0 °F 89% 30.06 in 8.0 mi Calm Calm - 0.01 in   Overcast
3:52 PM 32.0 °F 28.7 °F 28.0 °F 85% 30.08 in 10.0 mi Variable 3.5 mph - 0.01 in   Mostly Cloudy
4:52 PM 33.1 °F 26.9 °F 26.1 °F 75% 30.09 in 10.0 mi Variable 6.9 mph - N/A   Clear
5:52 PM 33.1 °F 27.7 °F 26.1 °F 75% 30.11 in 10.0 mi Variable 5.8 mph - N/A   Clear
6:52 PM 33.1 °F 26.1 °F 26.1 °F 75% 30.13 in 10.0 mi NNW 8.1 mph - N/A   Partly Cloudy
7:52 PM 33.1 °F 26.1 °F 24.1 °F 70% 30.13 in 10.0 mi NNW 8.1 mph - N/A   Clear
8:52 PM 33.1 °F 28.7 °F 23.0 °F 66% 30.14 in 10.0 mi Variable 4.6 mph - N/A   Clear
9:52 PM 33.1 °F 26.9 °F 23.0 °F 66% 30.15 in 10.0 mi Variable 6.9 mph - N/A   Partly Cloudy
10:52 PM 33.1 °F 26.1 °F 23.0 °F 66% 30.15 in 10.0 mi North 8.1 mph 19.6 mph N/A   Mostly Cloudy
11:52 PM 33.1 °F 26.1 °F 21.0 °F 61% 30.15 in 10.0 mi NNW 8.1 mph 21.9 mph N/A   Partly Cloudy